Flag for United Kingdom Weather past 2 weeks in Portsmouth, England, United Kingdom

Now
64 °F

Partly sunny.


Feels Like: 64 °F
Forecast: 53 / 64 °F
Wind: 3 mph from North

Location: Southampton / Weather Centre

Current Time: Sep 20, 2014 at 11:49:43 AM

Latest Report: Sep 20, 2014 at 11:20 AM


Visibility: 4 mi

Pressure: 29.98 "Hg

Humidity: 88%

Dew point: 61 °F

Location of PortsmouthLocation

Historic Weather in Portsmouth — Graph

°F

Portsmouth temperature yesterday

Maximum temperature yesterday: 72 °F (at 3:50 PM)
Minimum temperature yesterday: 61 °F (at 5:50 AM)
Average temperature yesterday: 65 °F

Past Weeks' High & Low Weather Summary

 TemperatureHumidityPressure
High73 °F (Sep 16, 1:50 PM)100% (Sep 6, 10:20 PM)30.30 "Hg (Sep 6, 10:20 PM)
Low45 °F (Sep 9, 5:50 AM)46% (Sep 8, 3:50 PM)29.77 "Hg (Sep 18, 5:50 AM)
Average62 °F77%30.03 "Hg
* Reported Sep 5 10:20 AM — Sep 20 10:50 AM, Portsmouth, Weather by CustomWeather, © 2014

Note: Actual official high and low records may vary slightly from our data, if they occured in-between our weather recording intervals... More about our weather records

Advertising

Portsmouth weather history for previous 24 hours

 ConditionsComfort  
Time TempWeatherWind HumidityBarometerVisibility
10:50 AM
Sep 20
64 °FPartly sunny.5 mph88%29.98 "Hg4 mi
10:20 AM64 °FPartly sunny.3 mph88%29.98 "Hg4 mi
9:50 AM63 °FPartly sunny.2 mph88%29.98 "Hg4 mi
9:20 AM63 °FPartly sunny.6 mph94%29.98 "Hg4 mi
8:50 AM63 °FFog.5 mph94%29.98 "Hg2 mi
8:20 AM63 °FFog.5 mph94%29.95 "Hg2 mi
7:50 AM63 °FFog.6 mph94%29.95 "Hg2 mi
7:20 AM63 °FFog.6 mph94%29.95 "Hg2 mi
6:50 AM61 °FFog.3 mph100%29.95 "Hg1 mi
6:20 AM61 °FFog.1 mph94%29.92 "Hg1 mi
5:50 AM61 °FFog.1 mph100%29.92 "Hg1 mi
10:20 PM
Sep 19
61 °FClear.No wind94%29.92 "Hg5 mi
9:50 PM61 °FPassing clouds.No wind94%29.92 "Hg5 mi
9:20 PM61 °FPassing clouds.No wind94%29.92 "Hg6 mi
8:50 PM63 °FPassing clouds.No wind94%29.89 "Hg6 mi
8:20 PM63 °FPassing clouds.No wind94%29.89 "HgN/A
7:50 PM63 °FPassing clouds.No wind94%29.89 "HgN/A
7:20 PM64 °FPassing clouds.2 mph88%29.86 "HgN/A
6:50 PM66 °FPassing clouds.No wind88%29.86 "HgN/A
6:20 PM68 °FPassing clouds.3 mph78%29.86 "HgN/A
5:50 PM68 °FPassing clouds.5 mph78%29.86 "HgN/A
5:20 PM70 °FPassing clouds.No wind78%29.83 "HgN/A
4:50 PM70 °FScattered clouds.1 mph73%29.83 "HgN/A
4:20 PM72 °FScattered clouds.1 mph69%29.83 "Hg4 mi
3:50 PM72 °FScattered clouds.No wind69%29.83 "Hg4 mi
3:20 PM70 °FBroken clouds.3 mph78%29.83 "Hg4 mi
2:50 PM70 °FBroken clouds.3 mph73%29.86 "Hg4 mi
2:20 PM70 °FBroken clouds.2 mph73%29.86 "Hg4 mi
1:50 PM68 °FPartly sunny.2 mph78%29.86 "Hg3 mi
1:20 PM68 °FPartly sunny.3 mph78%29.86 "Hg3 mi
12:50 PM68 °FPartly sunny.1 mph78%29.86 "Hg3 mi
12:20 PM68 °FPartly sunny.No wind83%29.86 "Hg3 mi
11:50 AM66 °FBroken clouds.3 mph83%29.86 "Hg2 mi
11:20 AM64 °FPartly sunny.3 mph94%29.86 "Hg1 mi
Weather by CustomWeather, © 2014

See weather overviewHow to use our weather pages